Overview Statistics Trail Chart Weather Telemetry Raw packets
 

This is the latest recevied weather packets stored in our database for station/object WX0ABE-13. If no packets are shown the sender has not sent any weather packets the latest 10 day(s).

<< 42 43 44 45 46 47 48 >>
Time Temp. Humidity Pressure Rain* Wind** Luminosity Snow
1788059041 21.11° C 60% 1017.1 hPa 0 mm - 0 W/m² -
1788058741 20.56° C 62% 1017.2 hPa 0 mm - 0 W/m² -
1788058440 20.56° C 64% 1017.3 hPa 0 mm - 0 W/m² -
1788058139 21.11° C 65% 1017.3 hPa 0 mm - 0 W/m² -
1788057835 21.11° C 65% 1017.2 hPa 0 mm - 0 W/m² -
1788057532 20.56° C 65% 1017.1 hPa 0 mm - 0 W/m² -
1788057231 20.56° C 67% 1016.4 hPa 0 mm - 0 W/m² -
1788056930 21.11° C 69% 1016.5 hPa 0 mm - 0 W/m² -
1788056626 22.22° C 69% 1016.8 hPa 0 mm - 0 W/m² -
1788056326 22.78° C 66% 1017.2 hPa 0 mm - 0 W/m² -
1788056021 22.78° C 65% 1016.6 hPa 0 mm - 0 W/m² -
1788055721 23.33° C 64% 1015.9 hPa 0 mm - 0 W/m² -
1788055415 23.33° C 62% 1015.5 hPa 0 mm - 0 W/m² -
1788055111 23.33° C 62% 1015.2 hPa 0 mm - 0 W/m² -
1788054812 23.89° C 61% 1014.8 hPa 0 mm - 0 W/m² -
1788054501 23.89° C 61% 1014.4 hPa 0 mm - 0 W/m² -
1788054197 23.89° C 58% 1013.7 hPa 0 mm - 0 W/m² -
1788053893 24.44° C 55% 1013.7 hPa 0 mm - 0 W/m² -
1788053587 24.44° C 54% 1014 hPa 1.78 mm - 1 W/m² -
1788053282 25.56° C 46% 1013.9 hPa 1.78 mm - 1 W/m² -
1788052978 24.44° C 48% 1014 hPa 0 mm - 2 W/m² -
1788052674 25° C 46% 1014.3 hPa 1.27 mm - 4 W/m² -
1788052369 25.56° C 49% 1015.3 hPa 3.05 mm - 3 W/m² -
1788052064 25° C 47% 1014.8 hPa 1.78 mm - 1 W/m² -
1788051759 23.33° C 62% 1015.3 hPa 0 mm - 1 W/m² -

* Rain latest hour (hover to see other rain measurements)
** Current wind speed in m/s (hover to see current wind gust speed)